This is the latest recevied weather packets stored in our database for station/object 9W2CHF-2. If no packets are shown the sender has not sent any weather packets the latest 10 day(s).
| Time | Temp. | Humidity | Pressure | Rain* | Wind** | Luminosity | Snow |
|---|---|---|---|---|---|---|---|
| 1787902242 | 32.78° C | 53% | 1010 hPa | - | - | - | - |
| 1787901341 | 32.78° C | 53% | 1010.3 hPa | - | - | - | - |
| 1787900441 | 32.78° C | 56% | 1010.2 hPa | - | - | - | - |
| 1787899541 | 32.78° C | 57% | 1010.6 hPa | - | - | - | - |
| 1787898644 | 32.78° C | 56% | 1010.7 hPa | - | - | - | - |
| 1787897741 | 32.78° C | 56% | 1011.1 hPa | - | - | - | - |
| 1787896841 | 32.22° C | 58% | 1011.3 hPa | - | - | - | - |
| 1787895941 | 32.22° C | 59% | 1011.8 hPa | - | - | - | - |
| 1787895052 | 32.22° C | 60% | 1012 hPa | - | - | - | - |
| 1787894153 | 32.78° C | 63% | 1012.3 hPa | - | - | - | - |
| 1787893253 | 33.33° C | 64% | 1012.5 hPa | - | - | - | - |
| 1787892354 | 33.33° C | 68% | 1012.8 hPa | - | - | - | - |
| 1787891452 | 33.33° C | 68% | 1013.1 hPa | - | - | - | - |
| 1787890551 | 33.33° C | 69% | 1013.3 hPa | - | - | - | - |
| 1787889650 | 33.33° C | 69% | 1013.4 hPa | - | - | - | - |
| 1787888750 | 33.33° C | 69% | 1013.6 hPa | - | - | - | - |
| 1787887850 | 33.33° C | 69% | 1013.7 hPa | - | - | - | - |
| 1787886950 | 33.33° C | 67% | 1013.9 hPa | - | - | - | - |
| 1787886049 | 33.33° C | 67% | 1014.1 hPa | - | - | - | - |
| 1787885147 | 33.33° C | 68% | 1014.2 hPa | - | - | - | - |
| 1787884247 | 32.78° C | 69% | 1014.2 hPa | - | - | - | - |
| 1787883347 | 32.78° C | 69% | 1014.3 hPa | - | - | - | - |
| 1787882447 | 32.78° C | 69% | 1014.2 hPa | - | - | - | - |
| 1787881547 | 32.78° C | 71% | 1014.3 hPa | - | - | - | - |
| 1787880646 | 32.78° C | 69% | 1014.2 hPa | - | - | - | - |
* Rain since midnight (hover to see other rain measurements)
** Current wind speed in m/s (hover to see current wind gust speed)